Home > Weather > Cambridge > Past weeks

Flag for Canada Past Weather in Cambridge, Ontario, Canada — Yesterday and Last 2 Weeks

Now
59 °F

Clear.


Feels Like: 60 °F
Forecast: 60 / 77 °F
Wind: 3 mph from Southeast

Location: Waterloo Well

Current Time: May 26, 2016 at 2:54:57 AM

Latest Report: May 26, 2016 at 2:00 AM


Visibility: 9 mi

Pressure: 30.04 "Hg

Humidity: 88%

Dew Point: 55 °F

Location of CambridgeLocation

Past Weather in Cambridge — Graph

°F

Cambridge Temperature Yesterday

Maximum temperature yesterday: 79 °F (at 2:00 PM)
Minimum temperature yesterday: 54 °F (at 6:00 AM)
Average temperature yesterday: 68 °F

High & Low Weather Summary for the Past Weeks

 TemperatureHumidityPressure
High81 °F (May 24, 5:00 PM)100% (May 13, 3:00 AM)30.30 "Hg (May 13, 3:00 AM)
Low32 °F (May 16, 1:00 AM)24% (May 24, 5:00 PM)29.48 "Hg (May 14, 10:03 AM)
Average55 °F63%30.02 "Hg
* Reported May 11 1:00 AM — May 26 1:00 AM, Cambridge, Weather by CustomWeather, © 2016

Note: Actual official high and low records may vary slightly from our data, if they occured in-between our weather recording intervals... More about our weather records

Advertising

Cambridge Weather History for the Previous 24 Hours

Scroll right to see more
 ConditionsComfort  
Time TempWeatherWind HumidityBarometerVisibility
1:00 AM
Thu, May 26
57 °FClear.5 mph88%30.05 "Hg9 mi
12:00 AM59 °FClear.5 mph82%30.06 "Hg9 mi
11:00 PM
Wed, May 25
61 °FClear.2 mph83%30.05 "Hg9 mi
10:00 PM64 °FClear.2 mph73%30.04 "Hg9 mi
9:00 PM68 °FSunny.2 mph60%30.04 "Hg9 mi
8:00 PM75 °FPassing clouds.7 mph44%30.03 "Hg9 mi
7:00 PM79 °FPartly sunny.3 mph54%30.03 "Hg9 mi
6:00 PM77 °FOvercast.6 mph57%30.04 "Hg9 mi
5:00 PM77 °FPartly sunny.8 mph54%30.04 "Hg9 mi
4:00 PM77 °FMostly cloudy.9 mph57%30.04 "Hg9 mi
3:00 PM73 °FOvercast.12 mph61%30.06 "Hg9 mi
2:00 PM79 °FPartly sunny.15 mph51%30.06 "Hg9 mi
1:00 PM77 °FPartly sunny.15 mph54%30.06 "Hg9 mi
12:00 PM75 °FOvercast.15 mph50%30.06 "Hg9 mi
11:00 AM77 °FScattered clouds.9 mph51%30.04 "Hg9 mi
10:00 AM75 °FPassing clouds.No wind44%30.03 "Hg9 mi
9:00 AM68 °FSunny.5 mph60%30.04 "Hg9 mi
8:00 AM63 °FMostly cloudy.5 mph68%30.04 "Hg9 mi
7:00 AM57 °FMostly cloudy.No wind82%30.04 "Hg9 mi
6:00 AM54 °FPartly cloudy.No wind82%30.02 "Hg9 mi
5:00 AM55 °FClear.3 mph72%30.01 "Hg9 mi
4:00 AM59 °FClear.5 mph59%30.01 "Hg9 mi
3:00 AM63 °FClear.3 mph49%30.00 "Hg9 mi
2:00 AM61 °FPassing clouds.3 mph55%29.99 "Hg9 mi
Weather by CustomWeather, © 2016

See weather overviewHow to use our weather pages